Regional Weather Roundup
Issued by NWS

Home | Current Version | Previous Version | Text Only | Print | Product List | Glossary On
Versions: 1 2 3 4 5 6 7 8 9 10 11 12 13 14 15 16 17 18 19 20 21 22 23 24 25 26 27 28 29 30 31 32 33 34 35 36 37 38 39 40 41 42 43 44 45 46 47 48 49 50
000
ASUS45 KABQ 081310
RWRNM
NEW MEXICO REGIONAL WEATHER ROUNDUP
NATIONAL WEATHER SERVICE ALBUQUERQUE NM
600 AM MST MON FEB 08 2016

NOTE: "FAIR" MEANS FEW OR NO CLOUDS BELOW 12,000 FEET AGL WITH NO
       SIGNIFICANT WEATHER OR OBSTRUCTIONS TO VISION.

      THIS PRODUCT IS RELEASED AS TWO VERSIONS.  ONE VERSION NEAR
      THE TOP OF THE HOUR CONTAINING PRELIMINARY DATA FROM ALBUQUERQUE
      AND OTHER STATIONS.  A FINAL VERSION WITH ADDITIONAL DATA IS
      ISSUED ABOUT 10 MINUTES AFTER THE HOUR.

NMZ501-503-504-510>518-081400-
NORTHWEST PLATEAU/NORTHCENTRAL MOUNTAINS

CITY           SKY/WX    TMP DP  RH WIND       PRES   REMARKS
FARMINGTON     CLOUDY    20  16  84 E7        30.47S WCI  11
LOS ALAMOS     CLOUDY    31  17  55 NW3       30.44S
SANTA FE       CLOUDY    24  17  74 N15       30.42R WCI  11
TAOS           CLOUDY    10   7  85 NE6       30.45R WCI   1
ANGEL FIRE     FAIR      -3  -7  82 CALM      30.42R

$$
NMZ402-403-502-505>509-081400-
WESTCENTRAL MOUNTAINS/SOUTHWEST MOUNTAINS

CITY           SKY/WX    TMP DP  RH WIND       PRES   REMARKS
GALLUP         CLEAR     16  12  84 CALM      30.48R
GRANTS         CLEAR     14  11  87 NW8       30.49R WCI   3
SILVER CITY      N/A     28  19  69 N13       30.38R WCI  18

$$
NMZ407-409-411-412-081400-
SOUTHERN DESERTS

CITY           SKY/WX    TMP DP  RH WIND       PRES   REMARKS
LORDSBURG      FAIR      27  16  63 S3        30.36R
DEMING         PTCLDY    35  17  47 NE5       30.36R WCI  31
LAS CRUCES     CLEAR     32  16  52 S6        30.38R WCI  26
HOLLOMAN AFB   CLOUDY    28  13  53 S5        30.37R WCI  23
ALAMOGORDO     CLOUDY    27  14  59 SW6       30.38R WCI  20
T OR C         CLEAR     33  16  49 CALM      30.39R

$$
NMZ519>523-081400-
CENTRAL VALLEYS/CENTRAL HIGHLANDS

CITY           SKY/WX    TMP DP  RH WIND       PRES   REMARKS
ALBUQUERQUE    CLOUDY    33  19  56 N10       30.44R WCI  25
DOUBLE EAGLE   CLEAR     25  18  74 NE7       30.44R WCI  17
MORIARTY ARPT  FAIR      15  11  85 CALM      30.44R
CLINES CORNERS CLOUDY    21  16  81 W7        30.38R WCI  12
BELEN          FAIR      24  17  72 N8        30.44R WCI  16
SOCORRO        FAIR      29  17  61 NW7       30.43R WCI  22

$$
NMZ524>526-539-540-081400-
SOUTHCENTRAL MOUNTAINS

CITY           SKY/WX    TMP DP  RH WIND       PRES   REMARKS
RUIDOSO          N/A     18  14  86 CALM      30.44S

$$
NMZ527>531-081400-
NORTHEAST HIGHLANDS/NORTHEAST PLAINS

CITY           SKY/WX    TMP DP  RH WIND       PRES   REMARKS
LAS VEGAS      CLOUDY    18  15  88 S13       30.36S WCI   5
RATON          CLOUDY    15  11  83 NE8       30.40R WCI   4
CLAYTON        CLOUDY    22  14  71 W10       30.39F WCI  11

$$
NMZ532>537-081400-
EASTCENTRAL PLAINS

CITY           SKY/WX    TMP DP  RH WIND       PRES   REMARKS
TUCUMCARI      CLOUDY    21  15  78 W8        30.46S WCI  11
CANNON AFB     CLOUDY    22  12  64 NW8       30.45R WCI  13
CLOVIS AIRPORT CLOUDY    23  10  58 NW9       30.46S WCI  13

$$
NMZ028-029-538-081400-
SOUTHEAST PLAINS

CITY           SKY/WX    TMP DP  RH WIND       PRES   REMARKS
ROSWELL        CLOUDY    25  14  63 W6        30.50S WCI  18
ARTESIA        CLOUDY    27  18  69 W9        30.53R WCI  17
CARLSBAD       CLOUDY    25  17  72 W8        30.51R WCI  16
HOBBS          CLEAR     23  14  68 NW8       30.48R WCI  14


$$



USA.gov is the U.S. government's official web portal to all federal, state and local government web resources and services.